| time (UTC) | temp F | wind direction | speed knots | gust knots | rain 1hr in | rain 24hr in | rain mn in | humidity % | barometer mb |
| 20260901154536 | 87 | 260 | 2.6 | 5.2 | 0.00 | 0.00 | 0.00 | 79 | 1017.1 |
| 20260901153038 | 87 | 247 | 1.7 | 4.3 | 0.00 | 0.00 | 0.00 | 78 | 1017.1 |
| 20260901151633 | 86 | 223 | 1.7 | 5.2 | 0.00 | 0.00 | 0.00 | 80 | 1017.2 |
| 20260901150032 | 86 | 186 | 1.7 | 8.7 | 0.00 | 0.00 | 0.00 | 82 | 1017.1 |
| 20260901144527 | 84 | 203 | 2.6 | 7.0 | 0.00 | 0.00 | 0.00 | 83 | 1017.0 |
| 20260901143028 | 84 | 214 | 2.6 | 6.1 | 0.00 | 0.00 | 0.00 | 85 | 1017.1 |
| 20260901141521 | 83 | 217 | 2.6 | 7.0 | 0.00 | 0.00 | 0.00 | 85 | 1017.2 |
| 20260901140018 | 83 | 195 | 0.9 | 4.3 | 0.00 | 0.00 | 0.00 | 88 | 1017.1 |
| 20260901134524 | 82 | 219 | 2.6 | 4.3 | 0.00 | 0.00 | 0.00 | 89 | 1017.1 |
| 20260901133011 | 81 | 222 | 1.7 | 3.5 | 0.00 | 0.00 | 0.00 | 92 | 1017.1 |
| 20260901131508 | 79 | 204 | 0.9 | 3.5 | 0.00 | 0.00 | 0.00 | 96 | 1017.2 |
| 20260901130005 | 78 | 213 | 1.7 | 4.3 | 0.00 | 0.00 | 0.00 | 97 | 1017.2 |
| 20260901124503 | 77 | 199 | 1.7 | 3.5 | 0.00 | 0.00 | 0.00 | 98 | 1017.1 |
| 20260901123059 | 76 | 200 | 0.9 | 2.6 | 0.00 | 0.00 | 0.00 | 98 | 1017.1 |
| 20260901121600 | 76 | 202 | 0.9 | 2.6 | 0.00 | 0.00 | 0.00 | 98 | 1017.1 |
| 20260901114553 | 74 | 150 | 0.0 | 0.0 | 0.00 | 0.00 | 0.00 | 98 | 1016.5 |
| 20260901113110 | 73 | 150 | 0.0 | 0.0 | 0.00 | 0.00 | 0.00 | 98 | 1016.3 |
| 20260901111548 | 73 | 150 | 0.0 | 0.0 | 0.00 | 0.00 | 0.00 | 98 | 1016.1 |
| 20260901104545 | 74 | 151 | 0.0 | 0.0 | 0.00 | 0.00 | 0.00 | 98 | 1015.7 |
| 20260901103046 | 73 | 151 | 0.0 | 0.0 | 0.00 | 0.00 | 0.00 | 98 | 1015.7 |
| 20260901101608 | 73 | 151 | 0.0 | 0.0 | 0.00 | 0.00 | 0.00 | 97 | 1015.5 |
| 20260901100052 | 74 | 151 | 0.0 | 0.0 | 0.00 | 0.00 | 0.00 | 98 | 1015.4 |
| 20260901094544 | 74 | 151 | 0.0 | 0.0 | 0.00 | 0.00 | 0.00 | 98 | 1015.3 |
| 20260901093041 | 74 | 151 | 0.0 | 0.9 | 0.00 | 0.00 | 0.00 | 98 | 1015.1 |
| 20260901091541 | 74 | 151 | 0.9 | 1.7 | 0.00 | 0.00 | 0.00 | 98 | 1015.2 |
| 20260901090040 | 73 | 46 | 0.0 | 0.0 | 0.00 | 0.00 | 0.00 | 97 | 1015.3 |
| 20260901084544 | 74 | 46 | 0.0 | 0.0 | 0.00 | 0.00 | 0.00 | 97 | 1015.3 |
| 20260901083038 | 74 | 46 | 0.0 | 0.0 | 0.00 | 0.00 | 0.00 | 97 | 1015.4 |
| 20260901081540 | 74 | 46 | 0.0 | 0.0 | 0.00 | 0.00 | 0.00 | 97 | 1015.3 |
| 20260901080042 | 74 | 46 | 0.0 | 0.0 | 0.00 | 0.00 | 0.00 | 97 | 1015.4 |
| 20260901074536 | 74 | 46 | 0.0 | 0.0 | 0.00 | 0.00 | 0.00 | 97 | 1015.5 |
| 20260901073037 | 74 | 46 | 0.0 | 0.0 | 0.00 | 0.00 | 0.00 | 97 | 1015.6 |
| 20260901071533 | 74 | 46 | 0.0 | 0.0 | 0.00 | 0.00 | 0.00 | 97 | 1015.5 |
| 20260901070031 | 74 | 46 | 0.0 | 0.0 | 0.00 | 0.00 | 0.00 | 97 | 1015.6 |
| 20260901064530 | 74 | 46 | 0.0 | 0.0 | 0.00 | 0.00 | 0.00 | 96 | 1015.6 |
| 20260901063029 | 75 | 46 | 0.0 | 0.0 | 0.00 | 0.00 | 0.00 | 97 | 1015.5 |
| 20260901061528 | 75 | 46 | 0.0 | 0.0 | 0.00 | 0.00 | 0.00 | 96 | 1015.5 |
| 20260901060025 | 75 | 46 | 0.0 | 0.0 | 0.00 | 0.00 | 0.00 | 96 | 1015.7 |
| 20260901054524 | 75 | 46 | 0.0 | 0.0 | 0.00 | 0.00 | 0.00 | 96 | 1015.7 |
| 20260901053023 | 75 | 46 | 0.0 | 0.0 | 0.00 | 0.00 | 0.00 | 96 | 1015.8 |
| 20260901051522 | 75 | 46 | 0.0 | 0.0 | 0.00 | 0.00 | 0.00 | 96 | 1015.8 |
| 20260901050019 | 76 | 46 | 0.0 | 0.0 | 0.00 | 0.00 | 0.00 | 96 | 1015.8 |
| 20260901044518 | 76 | 46 | 0.0 | 0.0 | 0.00 | 0.00 | 0.00 | 96 | 1015.8 |
| 20260901043021 | 76 | 46 | 0.0 | 0.0 | 0.00 | 0.00 | 0.00 | 95 | 1015.7 |
| 20260901041517 | 76 | 46 | 0.0 | 0.0 | 0.00 | 0.00 | 0.00 | 95 | 1015.8 |
| 20260901040016 | 76 | 46 | 0.0 | 0.0 | 0.00 | 0.00 | 0.00 | 95 | 1015.8 |
| 20260901034515 | 77 | 46 | 0.0 | 0.0 | 0.00 | 0.00 | 0.00 | 95 | 1015.8 |
| 20260901033018 | 77 | 46 | 0.0 | 0.0 | 0.00 | 0.00 | 0.00 | 94 | 1016.0 |
| 20260901031517 | 77 | 46 | 0.0 | 0.0 | 0.00 | 0.00 | 0.00 | 94 | 1015.9 |
| 20260901030018 | 77 | 46 | 0.0 | 0.0 | 0.00 | 0.00 | 0.00 | 94 | 1015.9 |
| 20260901024514 | 77 | 46 | 0.0 | 0.0 | 0.00 | 0.00 | 0.00 | 94 | 1015.9 |
| 20260901023014 | 78 | 47 | 0.0 | 0.0 | 0.00 | 0.00 | 0.00 | 94 | 1015.8 |
| 20260901021513 | 78 | 46 | 0.0 | 0.0 | 0.00 | 0.00 | 0.00 | 93 | 1015.8 |
| 20260901020036 | 78 | 47 | 0.0 | 0.0 | 0.00 | 0.00 | 0.00 | 92 | 1015.7 |
| 20260901014512 | 78 | 47 | 0.0 | 0.9 | 0.00 | 0.00 | 0.00 | 92 | 1015.6 |
| 20260901013014 | 79 | 47 | 0.0 | 0.9 | 0.00 | 0.00 | 0.00 | 91 | 1015.5 |
| 20260901011510 | 79 | 47 | 0.0 | 0.0 | 0.00 | 0.00 | 0.00 | 90 | 1015.4 |
| 20260901010010 | 79 | 47 | 0.0 | 0.0 | 0.00 | 0.00 | 0.00 | 90 | 1015.2 |
| 20260901004509 | 80 | 47 | 0.0 | 0.9 | 0.00 | 0.00 | 0.00 | 88 | 1015.2 |
| 20260901003007 | 81 | 45 | 0.0 | 2.6 | 0.00 | 0.00 | 0.00 | 87 | 1014.9 |
| 20260901001507 | 83 | 41 | 0.0 | 3.5 | 0.00 | 0.00 | 0.00 | 85 | 1014.7 |
| 20260901000005 | 85 | 28 | 0.0 | 3.5 | 0.00 | 0.00 | 0.00 | 81 | 1014.7 |
| 20260831234505 | 87 | 64 | 0.0 | 0.9 | 0.00 | 0.00 | 0.00 | 78 | 1014.6 |
| 20260831233007 | 89 | 57 | 0.0 | 2.6 | 0.00 | 0.00 | 0.00 | 75 | 1014.6 |
| 20260831231504 | 90 | 37 | 0.9 | 0.0 | 0.00 | 0.00 | 0.00 | 74 | 1014.7 |
| 20260831230003 | 90 | 25 | 0.0 | 4.3 | 0.00 | 0.00 | 0.00 | 75 | 1014.8 |
| 20260831224502 | 90 | 225 | 0.9 | 5.2 | 0.00 | 0.00 | 0.00 | 73 | 1014.7 |
| 20260831223002 | 90 | 32 | 0.9 | 3.5 | 0.00 | 0.00 | 0.00 | 74 | 1014.7 |
| 20260831221501 | 90 | 41 | 0.9 | 3.5 | 0.00 | 0.00 | 0.00 | 72 | 1014.6 |
| 20260831220115 | 89 | 56 | 0.9 | 5.2 | 0.00 | 0.00 | 0.00 | 75 | 1014.7 |
| 20260831214559 | 89 | 275 | 0.9 | 7.0 | 0.00 | 0.00 | 0.00 | 76 | 1014.7 |
| 20260831213058 | 88 | 33 | 3.5 | 7.0 | 0.00 | 0.00 | 0.00 | 78 | 1014.8 |
| 20260831211609 | 88 | 54 | 0.0 | 5.2 | 0.00 | 0.00 | 0.00 | 77 | 1015.0 |
| 20260831210057 | 89 | 52 | 0.0 | 9.6 | 0.00 | 0.00 | 0.00 | 75 | 1015.2 |
| 20260831204558 | 91 | 284 | 3.5 | 6.1 | 0.00 | 0.00 | 0.00 | 68 | 1015.0 |
| 20260831203054 | 90 | 316 | 2.6 | 7.0 | 0.00 | 0.00 | 0.00 | 67 | 1015.1 |
| 20260831201556 | 91 | 267 | 3.5 | 6.1 | 0.00 | 0.00 | 0.00 | 68 | 1015.3 |
| 20260831200051 | 91 | 239 | 3.5 | 6.1 | 0.00 | 0.00 | 0.00 | 68 | 1015.2 |
| 20260831194627 | 91 | 259 | 3.5 | 10.4 | 0.00 | 0.00 | 0.00 | 69 | 1015.3 |
| 20260831193052 | 91 | 273 | 3.5 | 6.1 | 0.00 | 0.00 | 0.00 | 68 | 1015.5 |
| 20260831191549 | 90 | 283 | 3.5 | 0.0 | 0.00 | 0.00 | 0.00 | 70 | 1015.7 |
| 20260831190047 | 90 | 283 | 3.5 | 7.0 | 0.00 | 0.00 | 0.00 | 70 | 1015.8 |
| 20260831184608 | 90 | 232 | 2.6 | 7.8 | 0.00 | 0.00 | 0.00 | 72 | 1015.9 |
| 20260831183056 | 90 | 286 | 3.5 | 7.8 | 0.00 | 0.00 | 0.00 | 69 | 1016.1 |
| 20260831181541 | 89 | 270 | 3.5 | 7.0 | 0.00 | 0.00 | 0.00 | 74 | 1016.2 |
| 20260831180043 | 89 | 318 | 3.5 | 7.0 | 0.00 | 0.00 | 0.00 | 74 | 1016.5 |
| 20260831174540 | 89 | 221 | 4.3 | 7.8 | 0.00 | 0.00 | 0.00 | 71 | 1016.6 |
| 20260831173051 | 89 | 291 | 2.6 | 7.0 | 0.00 | 0.00 | 0.00 | 75 | 1016.7 |
| 20260831171535 | 88 | 261 | 4.3 | 7.0 | 0.00 | 0.00 | 0.00 | 75 | 1016.9 |
| 20260831170035 | 88 | 265 | 1.7 | 7.0 | 0.00 | 0.00 | 0.00 | 73 | 1016.8 |
| 20260831164535 | 87 | 335 | 2.6 | 6.1 | 0.00 | 0.00 | 0.00 | 74 | 1017.1 |
| 20260831163031 | 87 | 265 | 2.6 | 7.8 | 0.00 | 0.00 | 0.00 | 75 | 1017.2 |
| 20260831161531 | 87 | 276 | 2.6 | 6.1 | 0.00 | 0.00 | 0.00 | 78 | 1017.3 |
| 20260831160030 | 86 | 268 | 2.6 | 6.1 | 0.00 | 0.00 | 0.00 | 76 | 1017.2 |